"Pseudo-MPEC" for P12aCLy

Created 2025 Jun 17 16:35:04 UT using Find_Orb

Click here for an explanation of pseudo-MPECs

 
 Astrometry: 
     P12aCLy* C2025 05 31.37267415 55 37.028-08 41 22.35   ~5VG2 20.61wXNEOCPF51
     P12aCLy  C2025 05 31.38435115 55 37.170-08 41 21.26   ~5VG2 20.48wXNEOCPF51
     P12aCLy  C2025 05 31.39731515 55 37.404-08 41 19.70   ~5VG2 20.87wXNEOCPF51

Station data:
(F51) Pan-STARRS 1, Haleakala  (N20.707234 W156.255910)  US/Hawaii.
   Observers J. Bulger, T. Lowe, A. Schultz, M. Willman. Measurers K.
   Chambers, S. Chastel, T. de Boer, L. Denneau, J. Fairlamb, H. Flewelling,
   M. Huber, C.-C. Lin, E. Magnier, Y. Ramanjooloo, R. Wainscoat, R. Weryk.
   1.8-m Ritchey-Chrétien + CCD.

Orbital elements:  P12aCLy
   Perihelion 2025 Mar 29.85284 +/- 46 TT = 20:28:05 (JD 2460764.35284)
Epoch 2025 May 31.0 TT = JDT 2460826.5   Earth MOID: 0.0154   Ju: 0.4864
M   3.97517433 +/- 19               (J2000 ecliptic)             AutoNEOCP
n   0.06396389 +/- 0.159            Peri.  294.36265 +/- 90
a   6.19221619 +/- 10.2             Node   229.77079 +/- 49
e   0.8748819 +/- 0.25              Incl.    8.94338 +/- 2.6
P  15.40881                H 21.71  G  0.15   U 11.5  SR
q 0.77475785 +/- 0.372    Q 11.6096745 +/- 78.2
From 3 observations 2025 May 31 (35.5 min); mean residual 0".19
Residuals in arcseconds: 
250531 F51  .19+  .05+    250531 F51  .36-  .10-    250531 F51  .17+  .05+    

Ephemerides (geocentric):
Date (UTC) HH   RA             Dec           delta  r     elong  mag " sig PA
---- --------  ------------   ------------  ------ ------ -----  --- --------
2025 06 17 17  16 02 32.942   -09 02 37.14  .56169 1.5339 151.8 22.3  46d  94
2025 06 17 18  16 02 34.026   -09 02 45.17  .56233 1.5345 151.7 22.3  46d  94
2025 06 17 19  16 02 35.110   -09 02 53.21  .56297 1.5350 151.7 22.3  46d  94
2025 06 17 20  16 02 36.196   -09 03 01.27  .56362 1.5355 151.7 22.3  46d  94
2025 06 17 21  16 02 37.282   -09 03 09.34  .56426 1.5360 151.6 22.3  46d  94
2025 06 17 22  16 02 38.370   -09 03 17.43  .56491 1.5365 151.6 22.3  46d  94
2025 06 17 23  16 02 39.458   -09 03 25.54  .56555 1.5371 151.6 22.4  46d  94
2025 06 18 00  16 02 40.547   -09 03 33.65  .56620 1.5376 151.5 22.4  46d  94
2025 06 18 01  16 02 41.637   -09 03 41.79  .56685 1.5381 151.5 22.4  46d  94
2025 06 18 02  16 02 42.728   -09 03 49.93  .56749 1.5386 151.5 22.4  46d  94
2025 06 18 03  16 02 43.820   -09 03 58.10  .56814 1.5391 151.4 22.4  46d  94
2025 06 18 04  16 02 44.913   -09 04 06.28  .56878 1.5397 151.4 22.4  46d  94
2025 06 18 05  16 02 46.007   -09 04 14.47  .56943 1.5402 151.4 22.4  46d  94
2025 06 18 06  16 02 47.102   -09 04 22.67  .57008 1.5407 151.4 22.4  46d  94
2025 06 18 07  16 02 48.197   -09 04 30.90  .57072 1.5412 151.3 22.4  46d  94
2025 06 18 08  16 02 49.294   -09 04 39.13  .57137 1.5417 151.3 22.4  46d  94
2025 06 18 09  16 02 50.392   -09 04 47.38  .57202 1.5423 151.3 22.4  46d  94
2025 06 18 10  16 02 51.490   -09 04 55.65  .57267 1.5428 151.2 22.4  46d  94
2025 06 18 11  16 02 52.590   -09 05 03.93  .57331 1.5433 151.2 22.4  46d  94
2025 06 18 12  16 02 53.690   -09 05 12.22  .57396 1.5438 151.2 22.4  46d  94
2025 06 18 13  16 02 54.792   -09 05 20.53  .57461 1.5443 151.1 22.4  46d  94
2025 06 18 14  16 02 55.894   -09 05 28.86  .57526 1.5449 151.1 22.4  46d  94
2025 06 18 15  16 02 56.997   -09 05 37.19  .57591 1.5454 151.1 22.4  46d  94
2025 06 18 16  16 02 58.102   -09 05 45.55  .57656 1.5459 151.0 22.4  46d  94
2025 06 18 17  16 02 59.207   -09 05 53.91  .57721 1.5464 151.0 22.4  46d  94
2025 06 18 18  16 03 00.313   -09 06 02.29  .57786 1.5469 151.0 22.4  47d  94
2025 06 18 19  16 03 01.420   -09 06 10.69  .57851 1.5474 150.9 22.4  47d  94
2025 06 18 20  16 03 02.528   -09 06 19.10  .57916 1.5480 150.9 22.4  47d  94
2025 06 18 21  16 03 03.637   -09 06 27.52  .57981 1.5485 150.9 22.4  47d  94
2025 06 18 22  16 03 04.748   -09 06 35.96  .58046 1.5490 150.9 22.4  47d  94
2025 06 18 23  16 03 05.859   -09 06 44.41  .58111 1.5495 150.8 22.4  47d  94
2025 06 19 00  16 03 06.971   -09 06 52.88  .58176 1.5500 150.8 22.4  47d  94
2025 06 19 01  16 03 08.084   -09 07 01.36  .58241 1.5506 150.8 22.4  47d  94
2025 06 19 02  16 03 09.198   -09 07 09.85  .58306 1.5511 150.7 22.4  47d  94
2025 06 19 03  16 03 10.313   -09 07 18.36  .58372 1.5516 150.7 22.5  47d  94
2025 06 19 04  16 03 11.429   -09 07 26.88  .58437 1.5521 150.7 22.5  47d  94
2025 06 19 05  16 03 12.546   -09 07 35.41  .58502 1.5526 150.6 22.5  47d  94
2025 06 19 06  16 03 13.664   -09 07 43.96  .58567 1.5532 150.6 22.5  47d  94
2025 06 19 07  16 03 14.783   -09 07 52.53  .58633 1.5537 150.6 22.5  47d  94
2025 06 19 08  16 03 15.903   -09 08 01.10  .58698 1.5542 150.5 22.5  47d  94
2025 06 19 09  16 03 17.024   -09 08 09.69  .58763 1.5547 150.5 22.5  47d  94
2025 06 19 10  16 03 18.146   -09 08 18.30  .58829 1.5552 150.5 22.5  47d  94
2025 06 19 11  16 03 19.268   -09 08 26.91  .58894 1.5557 150.4 22.5  47d  94
2025 06 19 12  16 03 20.392   -09 08 35.55  .58959 1.5563 150.4 22.5  47d  94
2025 06 19 13  16 03 21.517   -09 08 44.19  .59025 1.5568 150.4 22.5  47d  94
2025 06 19 14  16 03 22.643   -09 08 52.85  .59090 1.5573 150.4 22.5  47d  94
2025 06 19 15  16 03 23.770   -09 09 01.52  .59156 1.5578 150.3 22.5  47d  94
2025 06 19 16  16 03 24.898   -09 09 10.21  .59221 1.5583 150.3 22.5  47d  94